Ted Stevens Anchorage International Airport Anchorage US
ICAO: PANC
IATA: ANC
Category: Large
Scheduled Services:

Elevation: 152 ft
TransAlt. 18000 ft.

Airport Communications:
APP/DEP:119.1
APP/DEP:123.8
ATIS:118.4
TWEB:114.3
CLNC DEL:119.4
KENAI RDO:122.2
GND:121.9
SAN FRANCISCO ARINC:1133
CAMPER:140.15
KENAI RDO:122.55
TWR:118.3
UNICOM:122.95

PANC Zoom In..

If you have problems with the map follow the link
https://www.worldairports.se/pages/airport.php?
ICAO=PANC

Runways:

(A) RW 07L length 10600 ft width 150 ft
ILS 109.90 / hdg 71

(B) RW 07R length 12400 ft width 200 ft
ILS 111.30 / hdg 71

(C) RW 15 length 11584 ft width 150 ft
ILS 111.75 / hdg 146

(D) RW 25L length 12400 ft width 200 ft
---- / hdg 251

(E) RW 25R length 10600 ft width 150 ft
---- / hdg 251

(F) RW 33 length 11584 ft width 150 ft
---- / hdg 326

Location; PANC
Day. 28 / Time. 11.53 Zulu
* Altimeter: 29.31
* Temperature: 4/° c. 39.2°f.
* Wind from: 170° Speed 04 kn.
Dewpoint: 11° c.
Visibility: 10 Statute Miles.
Clouds: Few 2000 ft.
Clouds: Few 7000 ft.

PANC 281153Z 17004KT 10SM FEW020 FEW070 M18/M23 A2931 RMK AO2 SLP928 4/011 T11831228 11139 21206 53016


Wind From 170°
Speed 04 kn.

 
 
jpsmedia worldairports.se 2020   terms of use